Location: Casteau
(50.5142°N, 4.0161°E)
Time: 20:09:20
(UTC+00:00)

Transit 2A - Pass Details

Date: 30 July 2021
Orbit: 594 x 964 km, 66.7° (Epoch: 27 September)

Event Time Altitude Azimuth Distance (km) Brightness Sun altitude
Rises 11:35:00 0° 316° (NW) 3,052 8.9 57.7°
Reaches altitude 10° 11:38:20 10° 341° (NNW) 2,211 8.2 57.8°
Maximum altitude 11:41:06 15° 15° (NNE) 1,977 8.0 57.8°
Drops below altitude 10° 11:44:01 10° 48° (NE) 2,345 8.4 57.8°
Sets 11:47:45 0° 72° (ENE) 3,364 9.2 57.9°
